Russian LEO Navigation
NORAD ID: 26818
Int'l Code: 2001-023A
Perigee: 967.9 km
Apogee: 1,018.2 km
Inclination: 82.9 °
Period: 104.8 minutes
Semi major axis: 7364 km
Launch date: June 8, 2001
Source: Commonwealth of Independent States (former USSR) (CIS)
Comments: Normally part of a six-satellite constellation.
Two Line Element Set (TLE):
1 26818U 01023A 13140.65164520 .00000026 00000-0 11558-4 0 3771
2 26818 082.9258 160.1778 0034121 024.2163 336.0585 13.73811284599146
Source: AFSPC
NASA's NSSDC Master Catalog entry for COSMOS 2378